Location: Gönnheim
(49.4488°N, 8.2383°E)
Time: 05:35:15
(UTC+00:00)

SL-24 DEB - Pass Details

Date: 19 May 2025
Orbit: 638 x 664 km, 92.0° (Epoch: 14 June)

Event Time Altitude Azimuth Distance (km) Brightness Sun altitude
Exits shadow 21:14:17 21° 178° (S) 1,466 5.5 -14.9°
Maximum altitude 21:17:19 83° 264° (W) 664 4.2 -15.1°
Drops below altitude 10° 21:21:54 10° 354° (N) 2,080 7.8 -15.5°
Sets 21:24:10 0° 355° (N) 3,001 8.8 -15.7°
